{"data":{"norad_id":69588,"epoch":"2026-09-18T18:21:34.249536Z","epoch_age_seconds":178872,"freshness":"STALE","line1":"1 69588U 26138G   26261.76497974  .00000014  00000+0  99060-4 0  9998","line2":"2 69588  55.1394 296.1445 0006752 256.5354 103.4863 14.06035338 13266","mean_motion":14.06035338,"eccentricity":0.0006752,"inclination_deg":55.1394,"raan_deg":296.1445,"arg_perigee_deg":256.5354,"mean_anomaly_deg":103.4863,"bstar":9.906e-5,"rev_number":1326,"period_min":102.41563359626,"perigee_km":868.07466800438,"apogee_km":877.86656372884,"semimajor_km":7251.1076158666,"source":"CELESTRAK","updated_at":"2026-09-20T09:00:24.997064Z"}}